Theta_e
335 335 335 335 335 335 336 336 336 336 336 336 336 336 337 336 335 334 335 334 334 334 335 335 335 335 336 336 335 335 334 331 330 332 332 331 332 331 332 332 329 329 331 330 331 332 334 335 334 333 334 333 332 332 332 332 332 332 331 331 330 330 329
333 333 334 334 334 334 334 334 335 334 335 335 335 335 335 336 335 334 334 333 333 334 334 335 334 334 334 335 334 335 334 332 331 332 332 331 332 332 332 332 329 329 330 331 330 329 330 334 335 333 332 332 333 332 332 332 332 332 331 330 330 330 330
329 331 332 332 332 333 333 333 334 334 334 334 335 334 334 334 334 334 334 333 333 333 333 333 334 334 334 335 335 334 334 333 332 332 331 331 332 332 332 331 330 330 330 329 330 329 330 333 334 333 331 332 333 332 332 332 332 332 331 330 330 330 330
326 327 329 329 330 331 331 331 332 332 333 333 333 334 334 333 333 332 333 334 334 333 332 332 333 335 335 334 334 334 334 333 332 332 331 331 332 332 332 331 330 330 330 329 330 330 330 332 334 333 331 331 332 331 331 332 332 332 331 330 330 330 331
323 325 326 327 327 328 328 328 329 330 331 331 332 332 333 333 333 332 332 333 333 334 333 333 333 334 334 333 333 333 334 333 333 332 331 331 332 332 332 331 330 330 331 331 331 331 331 333 333 332 331 331 332 331 331 332 332 332 331 331 330 330 330
322 323 324 324 325 325 326 326 327 328 328 329 330 331 332 333 333 332 332 332 332 333 333 333 333 333 334 333 333 333 333 333 333 332 330 330 331 332 332 331 331 331 331 332 332 332 333 332 331 331 331 332 332 331 331 332 332 332 332 331 330 330 330
320 321 321 322 321 322 323 324 324 325 325 325 325 327 330 331 331 332 332 331 332 332 332 333 333 333 333 333 333 333 333 333 333 332 330 330 330 331 330 331 332 332 333 333 333 334 332 329 329 331 331 331 331 330 330 331 332 332 332 331 330 331 330
319 319 319 319 319 320 321 321 321 321 322 323 324 325 327 328 329 330 331 331 331 330 330 331 331 332 332 332 333 332 333 333 333 332 330 329 330 331 330 330 332 331 332 334 334 335 334 331 331 330 331 331 331 329 328 330 331 331 332 331 330 331 331
318 318 318 318 318 319 319 319 319 320 321 322 323 324 325 326 328 329 329 330 330 330 330 330 330 330 331 331 331 331 332 332 333 333 331 330 331 331 330 331 331 329 331 333 334 334 334 333 333 331 331 331 330 331 329 329 330 330 331 331 330 331 331
317 318 318 317 317 317 318 318 318 318 319 320 321 322 323 324 326 327 328 329 329 329 329 329 330 330 329 330 330 331 331 331 331 332 332 332 332 332 332 332 332 331 331 333 333 333 333 333 333 331 332 330 329 331 331 330 330 329 330 331 330 331 331
315 316 316 316 315 316 316 317 317 317 317 318 318 319 320 321 322 324 326 327 327 328 329 329 329 329 329 329 330 330 330 329 329 330 331 332 332 332 333 332 333 333 332 332 332 332 332 333 333 332 331 330 328 329 330 330 330 329 330 331 330 331 330
314 314 314 314 314 314 314 315 315 315 315 315 316 316 318 319 319 321 322 322 323 326 328 328 328 329 328 328 329 329 329 329 329 329 329 330 331 331 332 332 332 333 333 333 333 332 332 332 333 332 330 329 328 329 329 330 331 331 330 331 331 330 330
313 313 313 313 313 313 313 313 313 313 313 313 313 314 315 316 317 317 318 318 319 321 323 325 328 328 328 328 328 329 329 328 328 328 328 329 330 331 330 330 332 333 332 333 332 332 332 333 333 331 329 329 329 329 329 328 330 331 330 330 330 329 330
312 312 312 311 312 312 311 311 311 312 311 311 311 312 313 313 314 314 314 315 316 317 319 321 324 325 325 326 327 329 329 328 328 328 329 330 330 330 330 329 330 332 332 333 332 332 332 333 333 331 329 328 329 330 330 328 329 329 328 328 328 328 329
311 311 311 310 310 310 310 309 310 310 309 309 309 309 310 310 311 311 311 311 312 314 316 317 317 318 318 319 321 324 327 328 328 328 329 330 329 329 330 329 329 331 332 333 332 332 332 332 332 331 329 328 329 331 330 328 328 328 327 328 328 328 329
309 310 309 309 309 309 309 309 308 308 308 308 308 308 308 308 308 308 308 308 308 310 313 313 313 313 313 313 315 317 321 324 326 328 329 329 328 327 329 330 329 330 331 332 333 333 333 332 332 332 331 330 329 330 329 328 328 328 327 327 327 328 329
309 309 308 308 308 308 308 308 307 307 307 307 307 306 306 306 306 306 306 306 306 307 309 310 309 310 309 309 310 313 316 319 323 326 328 328 328 327 328 329 329 330 330 331 332 332 333 333 331 331 331 332 331 329 328 328 329 329 327 326 327 328 328
308 308 308 307 307 307 307 307 307 307 306 306 306 305 305 304 305 304 304 304 304 305 307 307 305 305 305 306 307 309 312 315 319 323 326 328 328 327 328 328 329 329 330 331 332 332 332 332 331 330 330 331 332 330 328 328 329 329 327 326 327 327 328
307 307 307 307 307 306 306 306 306 306 305 305 305 304 304 304 303 303 303 303 302 303 305 304 301 300 301 303 305 307 309 313 316 319 323 326 328 328 328 329 328 328 328 329 330 331 331 332 332 332 331 331 331 331 330 329 329 327 327 327 327 327 327
307 306 306 306 306 306 306 305 305 305 305 304 304 304 303 303 303 302 302 301 301 302 303 301 298 298 298 300 302 304 307 310 313 317 320 324 326 328 328 328 329 328 327 328 329 329 331 332 332 332 332 332 331 331 330 330 329 327 326 327 327 327 326
306 306 306 306 305 305 304 304 304 305 305 304 303 303 303 303 302 301 301 301 300 301 301 299 297 297 297 297 299 302 305 308 310 313 317 321 325 327 328 328 329 328 328 329 328 327 330 332 332 332 332 331 331 330 330 330 329 328 327 327 327 326 326
305 305 305 305 305 304 304 303 304 304 304 304 303 303 303 303 302 301 300 300 299 299 300 298 297 297 296 296 297 299 303 306 307 310 314 319 322 325 327 328 328 328 328 328 328 327 329 331 332 332 332 332 330 331 330 329 328 328 327 327 326 325 325
305 305 305 304 304 304 304 303 303 303 303 303 303 303 303 303 302 301 300 299 299 299 299 298 297 297 297 297 297 298 302 306 307 309 312 315 319 323 325 327 328 327 328 328 327 327 328 330 331 331 331 331 331 330 330 327 326 327 327 326 326 326 325
305 305 304 304 304 304 304 303 303 303 302 302 302 302 302 302 302 300 300 299 299 299 298 297 297 297 298 299 299 300 303 306 308 309 310 311 316 321 323 325 327 327 327 327 327 327 328 328 329 330 330 331 331 330 329 327 327 327 327 326 326 326 326
304 304 304 303 303 303 303 303 303 303 302 301 301 301 302 302 301 300 300 299 299 299 298 297 297 297 298 300 302 303 304 305 307 308 308 309 313 318 321 324 326 327 327 327 327 327 328 328 328 329 330 330 330 330 328 328 327 327 328 327 326 326 326
303 304 303 303 302 302 302 302 303 303 302 301 300 301 301 301 300 300 299 299 299 298 298 297 297 297 298 299 302 303 302 302 305 308 309 310 313 316 319 322 324 326 326 326 327 327 328 328 328 328 329 330 330 330 329 327 327 327 328 328 327 326 327
303 303 303 302 302 301 301 301 302 302 302 301 300 301 300 300 299 299 298 298 298 298 297 297 297 297 297 299 301 302 300 300 303 306 307 310 312 314 317 320 323 325 325 326 327 328 328 328 328 329 329 329 329 329 328 327 327 327 327 327 327 327 327
302 303 303 302 302 301 301 301 301 302 302 301 300 300 300 299 299 298 298 298 297 297 297 296 297 297 298 298 299 300 299 299 300 302 303 306 308 310 312 316 320 323 325 325 326 327 328 328 328 328 328 328 329 328 326 326 327 328 327 326 326 327 326
302 302 302 301 301 301 301 300 300 301 301 300 300 300 300 299 299 298 297 297 297 297 296 296 296 297 297 298 298 298 298 298 298 299 300 301 303 306 308 310 313 317 321 324 326 327 328 328 328 327 327 327 327 326 325 326 327 328 328 327 326 326 325
301 302 301 301 300 300 300 301 300 300 300 300 300 300 300 299 298 298 297 297 297 297 296 296 296 296 297 297 297 297 297 297 298 298 298 299 300 303 305 306 307 310 313 318 322 325 327 328 327 326 325 325 325 325 325 325 327 328 328 327 326 326 325
301 301 301 301 300 299 300 300 300 300 300 300 300 300 299 299 298 298 298 297 297 296 296 296 296 296 296 296 297 296 296 297 297 297 297 298 298 300 303 304 305 306 307 311 316 320 323 326 327 325 324 323 323 322 322 323 324 325 325 325 325 326 325
301 301 301 301 300 300 299 300 300 300 300 299 299 300 299 299 298 298 298 298 297 296 296 296 295 296 296 296 296 296 296 296 296 297 297 297 297 298 300 302 304 304 306 309 313 316 319 323 326 326 324 323 322 321 321 322 322 322 322 322 322 322 323
301 301 301 301 300 300 299 299 299 300 300 299 299 299 299 299 298 298 298 298 297 296 296 295 295 295 296 296 295 296 296 295 295 296 297 296 296 297 298 299 301 302 304 308 312 316 318 322 325 325 324 323 322 321 321 321 319 319 319 319 317 318 319
301 301 301 301 300 300 299 299 299 299 299 300 299 299 299 299 298 298 298 298 297 296 296 295 295 295 296 296 295 295 295 295 295 296 296 296 296 296 296 297 299 300 302 305 310 315 318 320 323 324 324 324 323 322 321 318 316 316 316 315 314 314 315
301 301 301 301 301 300 299 298 298 298 299 299 299 299 299 299 298 298 298 297 297 296 295 295 295 295 295 296 296 295 295 295 296 296 296 295 295 295 295 296 297 300 302 303 306 311 316 319 322 323 323 322 321 319 318 315 314 314 313 312 312 312 312
301 301 301 300 300 300 299 298 298 298 298 299 299 299 299 299 299 298 297 297 296 295 295 295 295 295 295 295 296 296 295 295 296 296 296 295 295 295 295 296 297 299 302 303 303 305 309 314 319 321 321 319 317 316 314 312 312 312 310 310 309 308 309
301 300 300 300 300 300 299 298 298 298 298 298 299 299 299 299 299 298 297 296 295 295 295 296 296 296 296 295 295 295 295 295 295 296 296 296 295 295 296 296 297 299 301 303 303 302 303 307 311 315 317 315 314 313 311 309 308 308 308 307 306 306 305
Wind_Speed
14 14 13 12 12 12 12 11 10 10 10 11 12 13 14 15 15 16 17 16 19 23 23 23 23 24 25 26 26 28 29 27 26 25 22 20 21 20 23 26 23 19 14 11 10 7 2 3 7 13 17 19 21 22 23 22 22 23 23 23 23 23 22
16 15 14 14 15 15 15 14 13 14 12 11 12 13 14 15 15 16 17 16 18 22 22 23 24 24 23 24 26 28 28 27 28 28 25 24 24 23 22 23 23 22 19 16 14 11 7 5 4 5 11 14 16 21 25 24 23 23 23 23 23 23 22
18 17 16 18 19 18 18 18 16 16 15 12 13 14 15 16 17 17 18 17 16 18 19 20 21 22 22 24 26 27 28 27 27 27 27 28 27 26 24 22 22 20 14 11 13 13 11 8 5 5 10 13 11 17 25 27 25 23 22 23 24 24 24
19 18 19 19 20 19 19 20 20 20 18 16 16 17 17 17 17 17 17 16 15 16 17 18 19 20 21 22 22 23 25 25 24 25 28 29 27 27 26 24 25 25 20 16 17 17 13 8 5 4 10 16 14 16 23 27 26 23 22 23 25 25 25
18 18 19 18 18 18 18 20 21 22 22 21 20 19 18 18 19 19 17 17 17 16 16 17 18 20 21 21 20 21 23 25 24 24 26 27 27 27 27 26 27 28 27 24 22 22 21 18 11 5 7 13 13 13 19 23 25 24 23 24 25 25 25
19 19 18 18 18 18 18 20 21 21 22 23 23 22 21 19 19 19 20 18 18 17 16 16 18 19 20 20 19 19 21 22 23 23 25 26 27 28 30 29 27 26 26 25 23 24 23 20 13 7 9 12 10 10 14 17 21 24 24 25 25 25 26
21 19 18 19 19 18 19 20 21 21 21 23 24 24 22 21 20 20 21 20 18 18 17 16 17 19 20 20 19 19 20 21 21 22 24 25 26 29 30 29 28 27 26 25 24 24 21 18 16 12 9 9 8 9 10 13 18 19 21 25 26 25 26
21 20 18 18 18 18 19 20 21 22 21 23 24 23 23 23 23 22 21 21 20 20 19 18 18 19 20 20 20 20 20 20 19 20 21 23 25 27 28 29 28 29 29 26 25 24 22 22 23 21 14 7 4 5 6 8 14 18 21 23 26 28 27
22 21 19 20 19 18 19 19 21 22 22 23 23 23 23 24 24 24 24 23 22 22 21 19 18 18 20 21 21 21 20 20 21 22 21 22 23 26 28 28 27 28 30 29 28 26 24 23 23 23 21 14 8 4 3 5 8 14 20 21 23 27 29
24 22 21 22 22 21 20 21 22 23 23 24 24 23 23 23 23 24 24 24 23 24 23 21 19 19 20 20 20 20 19 20 22 23 23 23 24 26 27 28 27 27 29 29 30 29 27 24 22 23 24 22 16 7 3 5 5 8 17 22 22 25 29
26 24 23 24 25 23 22 23 23 24 25 25 25 25 24 24 24 23 24 25 25 25 24 23 22 21 21 21 21 21 21 20 20 21 22 23 24 25 26 27 28 28 28 29 29 29 28 26 25 25 24 22 20 13 7 5 7 11 18 23 25 26 28
26 25 25 26 25 25 25 24 25 26 25 25 25 25 25 25 25 25 25 26 26 26 25 25 24 24 23 22 22 23 23 20 19 21 23 24 25 25 26 27 27 28 28 28 28 28 28 28 26 24 22 20 20 21 16 8 4 11 19 23 26 28 29
26 25 26 27 26 26 27 26 27 27 26 26 26 25 25 25 26 27 27 27 27 27 27 27 26 25 24 23 22 22 23 20 19 22 24 26 26 26 27 27 28 29 28 27 28 28 27 27 26 23 23 24 23 24 22 13 5 8 16 21 24 28 31
26 26 27 29 28 28 29 29 28 27 27 28 27 26 26 25 26 27 27 28 27 27 28 29 27 26 25 25 23 22 23 23 22 22 25 26 26 25 26 27 27 27 26 25 26 27 27 27 26 24 24 26 27 26 25 20 12 8 11 15 18 24 31
28 28 29 30 30 29 30 30 28 28 28 29 28 27 27 26 27 27 27 29 28 27 28 28 26 26 26 26 25 22 23 24 23 23 24 25 24 23 25 28 28 28 26 26 26 27 28 27 25 25 26 29 31 30 27 24 17 11 12 14 16 23 31
29 29 30 31 31 30 30 30 29 29 29 29 29 28 28 27 28 28 28 30 29 28 27 25 25 29 30 30 29 26 23 22 22 24 24 23 21 22 24 26 28 30 28 25 26 27 28 27 25 25 28 30 31 29 25 23 20 17 17 16 16 21 30
30 29 30 31 31 30 30 29 29 29 30 29 29 29 29 28 28 29 29 30 30 30 27 25 29 33 35 35 34 31 27 23 21 22 24 24 22 21 24 26 26 29 28 25 24 26 28 28 27 28 29 29 29 26 24 25 26 23 20 19 18 22 30
31 30 30 31 31 30 30 30 29 29 30 30 30 30 31 30 29 29 29 28 30 29 27 28 34 39 39 38 36 33 30 27 23 20 21 23 23 22 24 27 27 26 26 25 24 26 29 29 28 29 30 29 29 27 25 28 28 23 20 21 22 22 24
31 31 30 30 30 30 30 30 29 29 29 30 30 31 32 32 30 29 29 28 28 27 26 30 38 43 43 40 37 34 32 29 26 22 19 20 22 24 25 27 28 27 26 25 25 25 27 30 30 31 30 29 30 28 27 28 25 21 20 20 20 16 15
29 30 29 29 30 30 30 29 29 28 28 30 31 31 31 31 31 30 29 28 28 26 25 30 39 43 44 43 38 35 32 30 28 25 21 19 21 23 24 25 27 28 27 27 27 26 27 28 29 31 31 31 30 28 26 26 23 21 21 20 18 15 15
28 27 27 28 29 29 30 30 29 28 27 29 31 31 30 30 31 32 30 28 28 26 24 30 39 42 43 43 40 36 32 30 28 26 24 20 19 21 23 24 25 26 27 28 30 30 30 29 28 29 31 30 28 28 28 27 24 23 23 22 19 18 18
27 27 27 28 28 29 30 31 30 29 28 29 29 30 28 28 31 33 32 30 29 27 26 31 40 43 42 41 40 37 32 29 28 26 24 22 20 19 21 23 24 26 27 28 30 31 31 31 30 29 30 30 29 29 29 27 25 24 23 21 20 21 21
26 27 28 28 27 27 28 29 30 30 29 29 29 29 27 27 30 32 32 32 31 28 28 35 42 45 44 42 39 36 33 29 26 25 24 22 20 19 20 22 24 25 26 27 28 30 32 33 32 31 31 31 32 32 29 25 24 25 24 21 21 22 21
25 25 28 28 27 26 26 27 28 28 29 30 30 29 27 27 29 30 30 31 31 28 31 39 46 47 48 46 40 35 31 27 24 24 23 22 20 20 20 21 23 24 25 26 27 29 33 34 34 33 32 32 34 34 30 27 26 27 26 23 23 25 22
26 25 26 29 29 27 26 25 25 26 28 30 30 29 28 27 28 30 29 30 30 30 34 42 47 48 50 48 40 34 31 29 27 26 24 22 21 21 21 21 22 23 25 25 26 29 31 33 34 34 31 32 35 34 33 32 31 30 29 28 26 27 27
28 25 25 27 29 29 28 27 25 24 27 30 30 29 29 28 28 29 29 30 30 30 34 42 47 48 51 50 43 37 34 32 30 29 27 25 23 22 22 21 22 23 24 24 26 28 30 31 32 31 30 31 34 33 32 34 34 35 35 32 28 29 32
28 26 24 26 29 29 30 30 26 23 26 30 31 28 27 28 29 29 29 30 30 29 34 42 46 47 50 51 47 42 37 33 31 30 28 25 23 23 23 22 23 24 25 25 26 27 29 30 30 31 31 32 32 31 31 33 36 38 36 32 30 31 32
28 27 25 26 28 28 29 31 29 25 25 29 30 27 26 27 28 30 30 30 30 30 33 41 45 46 48 49 48 45 41 37 34 33 31 29 27 24 21 19 19 22 25 26 28 28 28 28 28 29 31 31 32 29 25 26 31 34 34 31 32 32 28
27 26 26 27 27 27 27 28 29 26 25 27 28 26 26 26 27 29 30 31 32 32 34 40 44 45 46 47 47 46 44 40 37 37 36 33 31 29 25 21 18 17 19 21 25 28 29 28 27 27 27 27 28 27 23 20 23 27 30 28 28 28 26
24 24 24 25 26 26 25 25 26 26 25 25 27 26 26 26 26 27 29 31 33 34 35 39 43 44 45 45 44 43 44 42 37 37 37 34 32 32 29 25 22 20 17 15 19 25 29 30 28 27 26 24 24 24 24 23 23 25 28 28 26 26 24
23 22 22 23 24 25 25 24 23 24 24 24 25 26 26 27 27 28 29 31 32 34 36 39 42 43 44 44 42 39 41 43 38 36 37 36 35 35 32 28 26 25 22 17 18 22 26 31 31 28 26 25 23 23 24 23 22 23 24 24 23 23 20
21 20 20 20 22 24 25 25 22 22 22 23 24 25 25 26 29 29 29 31 32 33 35 38 41 42 42 43 43 39 39 42 40 36 37 37 37 37 36 33 31 29 27 22 20 21 24 30 31 28 28 28 25 24 25 25 24 24 24 22 20 20 19
19 19 19 18 20 23 24 24 23 22 20 21 23 23 24 26 28 29 29 30 32 33 34 37 39 41 40 40 42 41 39 40 39 35 35 36 37 38 38 37 37 34 30 26 22 21 22 27 30 29 29 30 28 27 26 26 26 28 29 27 24 23 22
18 18 19 17 18 22 24 22 22 23 21 20 21 22 23 25 28 29 28 29 31 33 34 36 37 39 39 39 40 40 39 39 37 33 32 34 35 37 38 38 38 36 32 26 22 21 20 24 27 27 30 31 30 29 29 28 27 29 30 29 27 26 25
18 18 18 17 17 20 23 22 22 23 22 21 21 22 22 23 26 28 28 28 30 32 34 35 36 37 39 38 38 39 38 38 37 32 31 32 34 35 36 36 36 35 32 26 19 15 14 18 22 26 30 29 27 28 31 31 31 30 30 29 28 27 25
18 17 16 16 16 18 21 22 22 23 23 22 22 22 22 22 24 27 28 28 29 31 33 34 35 36 37 38 38 38 38 37 36 33 30 30 32 33 35 35 35 34 32 29 27 22 11 8 17 24 27 26 27 31 32 32 32 32 30 29 28 26 25
16 17 15 14 15 16 19 21 22 23 24 22 22 23 22 21 22 25 27 27 29 30 32 33 34 35 36 37 37 38 38 37 36 34 30 28 30 32 33 33 33 33 33 31 32 33 27 14 11 20 27 30 31 34 34 32 32 33 31 29 27 26 24
Wind_Direction
21 15 11 9 6 1 356 346 335 329 317 307 302 297 295 289 281 280 281 281 278 275 272 269 264 258 254 256 255 248 243 238 230 227 225 220 215 216 223 226 228 233 229 211 205 213 214 202 214 216 218 220 219 217 215 213 216 219 217 216 216 214 213
23 20 17 14 10 7 7 2 353 349 343 331 321 315 310 301 293 290 289 286 281 280 281 278 274 269 263 263 261 255 254 248 234 227 227 225 220 218 221 221 222 230 233 228 222 221 226 218 196 208 210 212 221 222 218 216 218 220 219 217 217 215 213
23 21 21 19 14 10 10 8 3 359 354 345 337 331 325 316 309 305 302 300 293 288 288 284 282 282 276 270 267 263 263 255 236 226 226 228 227 224 222 215 213 218 218 224 229 222 227 230 205 198 197 193 208 219 217 217 218 220 219 217 216 214 213
22 21 21 17 13 11 7 5 6 5 359 352 347 341 336 332 329 322 315 309 304 301 300 294 290 288 283 280 281 277 273 265 248 233 227 227 229 228 226 218 213 215 208 207 215 208 211 220 199 193 200 197 205 215 217 218 218 219 219 217 215 213 214
25 24 21 14 11 9 3 1 5 5 1 359 357 352 344 337 337 336 328 317 312 309 306 302 296 292 291 290 288 282 277 271 260 243 229 225 227 228 228 225 221 221 217 214 213 207 210 212 201 190 193 196 207 218 220 219 217 218 218 215 215 215 214
32 28 23 16 10 6 2 2 4 2 359 358 357 356 351 342 339 343 340 332 323 316 307 300 296 294 294 292 289 285 280 273 263 246 231 226 228 229 230 228 225 224 224 222 217 212 214 213 207 205 193 191 196 207 214 213 212 217 218 214 215 218 217
38 31 25 17 9 5 5 6 5 1 357 355 353 354 355 350 345 345 344 341 336 328 316 302 294 292 293 293 291 289 284 279 268 247 233 229 232 232 230 227 223 221 222 223 220 218 217 214 214 210 194 193 197 194 201 206 205 211 215 215 215 217 218
38 33 30 24 16 12 10 8 4 2 358 355 353 354 354 352 352 351 349 346 343 339 331 317 304 295 295 296 294 290 286 282 269 247 233 230 233 236 235 231 226 223 222 222 221 220 218 218 218 210 195 182 195 204 204 203 207 213 213 210 212 216 218
32 31 34 29 24 21 17 12 8 5 3 0 358 357 353 350 351 353 352 350 346 342 337 329 320 309 303 300 297 296 290 277 266 255 244 234 234 238 240 238 233 230 230 228 224 221 219 221 222 217 207 194 185 193 207 202 212 222 215 206 207 214 217
31 31 33 29 25 23 20 17 14 11 8 5 2 359 355 352 351 351 351 350 348 344 339 335 331 323 317 309 301 297 291 279 270 264 255 246 241 242 244 243 240 238 237 234 228 226 226 224 221 221 218 211 200 184 176 206 213 220 215 207 203 208 212
33 32 31 28 26 24 21 19 16 14 11 8 6 3 360 357 355 353 352 352 351 347 343 341 337 330 325 318 307 300 295 287 278 271 263 254 247 245 244 242 241 241 240 238 233 231 231 228 222 221 222 216 208 201 191 200 213 214 209 205 206 207 206
35 33 31 29 28 26 24 21 17 16 13 10 7 4 2 360 358 357 354 353 355 355 350 346 342 336 331 323 313 307 304 296 282 274 268 258 251 247 244 242 240 238 237 237 236 234 232 231 227 222 219 213 210 213 211 195 201 216 207 203 206 207 203
35 35 34 30 28 27 26 23 19 18 15 12 9 5 3 1 359 358 355 354 356 357 357 354 348 341 335 328 320 313 310 303 289 281 272 261 256 251 246 245 243 238 236 234 234 235 233 232 230 224 222 222 219 219 218 207 199 220 214 209 206 202 199
35 36 35 32 30 29 27 25 22 20 18 15 12 8 5 2 360 359 358 358 357 356 360 1 357 351 345 338 330 318 311 306 297 289 276 262 256 252 247 246 245 241 236 233 233 234 231 230 232 229 226 226 224 221 217 211 210 219 223 224 216 203 195
36 36 35 32 32 31 28 26 24 23 20 17 14 12 7 3 1 360 360 0 359 360 3 5 4 3 359 353 345 332 320 310 300 293 281 265 257 255 250 246 244 240 234 230 230 232 231 229 229 227 221 217 219 220 217 212 208 202 205 214 215 203 192
37 37 36 34 32 31 28 27 26 24 22 19 16 14 10 6 4 3 3 3 1 4 6 2 359 359 357 354 351 346 339 324 307 297 285 269 259 257 251 245 245 242 235 230 229 231 233 231 225 223 220 216 217 216 213 214 213 203 195 196 203 197 187
36 37 37 35 33 31 28 27 27 25 23 20 18 16 12 10 8 6 5 4 2 5 6 359 354 354 353 351 349 347 345 340 325 308 291 276 268 263 253 244 244 245 239 232 229 228 230 230 227 226 226 225 225 217 208 215 219 211 199 191 200 205 193
34 34 36 34 33 32 30 28 27 25 24 22 19 16 14 13 11 9 8 5 3 5 6 360 356 355 352 350 348 344 342 340 336 324 302 284 276 272 260 248 243 244 240 234 230 226 225 226 226 227 227 226 229 224 209 210 214 211 204 195 197 207 201
34 33 33 33 32 32 30 28 27 26 25 23 20 17 16 15 13 11 9 8 5 5 5 1 359 358 355 351 347 343 339 336 334 331 316 294 283 278 270 257 247 244 241 236 232 227 224 223 223 224 226 225 227 226 216 213 213 208 207 205 194 184 189
35 34 34 34 33 32 30 27 27 26 25 24 21 18 17 17 16 13 10 10 9 8 7 2 360 357 355 352 348 343 338 333 331 329 321 307 293 284 275 263 252 245 241 238 235 232 228 226 225 225 225 225 223 222 219 219 219 211 205 206 193 168 174
35 35 36 36 34 32 31 28 27 25 24 23 20 19 18 17 17 15 13 11 9 9 8 3 359 356 353 351 348 343 338 331 327 325 320 312 299 287 278 269 259 249 242 238 236 234 230 226 227 227 226 224 220 219 219 217 217 213 205 203 195 180 180
38 36 36 35 34 33 32 30 29 27 25 22 19 18 18 18 18 16 16 14 11 10 8 2 358 356 354 351 346 341 336 330 324 320 317 312 302 290 280 273 264 252 246 241 238 237 233 227 226 227 227 223 217 217 218 212 208 209 204 199 193 185 183
40 40 39 35 33 32 31 30 30 29 26 23 20 18 18 19 19 17 16 15 13 13 9 2 360 0 358 355 349 343 337 330 323 316 311 308 302 293 284 276 266 256 251 248 243 241 239 233 229 230 230 226 219 215 212 206 204 206 203 198 192 185 181
40 43 42 38 35 32 30 30 30 31 29 26 23 20 19 20 20 18 16 15 14 13 8 3 3 4 3 1 356 350 345 338 329 319 308 300 296 294 289 282 271 261 256 254 249 244 241 238 235 232 231 232 228 220 213 207 205 204 201 198 196 192 186
39 42 44 42 37 33 30 28 30 33 31 26 24 23 23 22 20 18 17 15 14 12 7 5 6 7 6 6 3 360 358 351 342 333 319 305 297 295 294 289 276 262 255 253 249 244 242 240 238 234 233 236 235 228 221 217 214 209 205 201 199 196 194
37 40 45 43 40 36 31 28 28 33 31 26 24 25 25 25 23 20 19 15 13 11 6 6 9 9 8 8 7 8 5 356 350 345 334 318 306 300 297 294 284 269 259 255 251 247 244 241 239 237 234 233 235 233 227 222 220 218 212 204 199 201 202
38 39 44 43 40 38 35 31 30 32 32 27 25 25 26 25 24 21 18 14 12 10 7 8 11 11 10 9 9 10 8 3 358 355 349 339 328 315 306 301 291 278 266 256 251 248 244 239 236 236 232 229 231 233 227 219 217 220 219 211 210 212 208
40 41 44 41 38 38 37 36 33 31 31 28 25 26 26 23 20 19 16 13 12 11 9 10 13 13 12 10 10 12 12 9 4 1 1 359 355 345 331 320 305 286 272 260 251 245 240 234 231 230 228 225 224 225 222 211 209 217 220 216 218 222 216
42 44 46 42 39 36 36 38 36 33 33 30 26 26 26 22 19 19 18 16 15 12 10 11 13 14 13 11 10 12 13 11 5 3 4 3 1 360 353 345 332 305 285 268 253 246 239 233 228 222 217 216 216 217 215 203 199 210 216 214 218 222 218
45 47 48 45 42 38 35 36 36 35 35 31 27 26 25 22 20 18 18 17 14 11 10 11 12 13 14 13 11 10 11 11 7 3 4 3 3 4 2 356 348 332 313 287 258 250 243 232 225 217 209 203 203 204 205 201 196 203 211 212 213 215 214
47 47 48 46 42 38 36 35 34 35 36 33 29 28 26 22 19 16 14 14 12 9 9 10 11 13 14 14 13 10 9 10 8 4 3 4 4 5 6 4 357 346 332 306 268 255 246 232 221 213 202 192 187 188 192 193 189 190 198 202 203 204 204
47 46 48 47 40 36 36 35 32 33 34 32 30 30 26 23 20 17 14 12 11 9 8 8 11 13 14 15 15 12 9 9 7 4 3 4 4 5 6 7 3 355 342 318 281 261 249 233 220 210 200 190 183 180 182 182 176 169 170 172 173 177 178
48 46 46 49 43 35 34 35 33 30 30 30 30 29 26 23 21 19 17 14 12 10 8 8 10 12 14 15 15 14 11 9 6 3 2 4 4 3 4 6 6 1 350 331 301 275 255 236 222 209 197 191 189 185 180 173 163 154 150 149 146 147 151
47 48 47 49 46 38 34 35 34 31 29 27 27 26 24 23 22 20 18 16 12 10 9 8 10 13 15 15 15 15 12 10 8 5 4 5 6 5 3 4 7 7 1 347 320 291 266 244 229 212 198 196 198 190 176 162 151 144 140 138 134 132 134
45 50 50 47 46 39 35 37 38 35 32 29 27 25 23 21 21 20 19 16 13 10 9 10 11 13 15 15 15 15 13 11 10 8 7 7 7 8 6 5 9 14 13 7 355 326 283 250 227 207 196 194 188 174 160 150 144 138 132 129 125 122 123
49 52 49 45 45 39 35 38 40 37 35 34 30 27 24 21 21 20 18 15 13 11 10 12 13 13 15 15 15 15 14 12 12 12 11 10 9 10 12 11 15 21 23 24 29 29 8 252 210 192 184 177 163 153 145 138 135 131 125 123 120 114 114
54 50 46 44 46 39 33 37 41 39 37 36 34 30 27 23 20 18 16 13 12 12 12 14 15 14 14 14 15 15 14 13 13 12 12 13 15 17 19 18 21 29 33 33 38 43 46 61 127 153 157 153 146 142 138 131 129 127 122 118 114 110 109